• In Russia
  • List of Countries
  • For 7 days
  • Water Temperature
  • Satellite Maps
  • Weather Map
  • Weather Widgets
  • user-avatar
    Login

    Hourly Weather Belmopan

    Today, 24 May, Friday

    Time Temperature Precipitation Wind Pressure Humidity
    00:00 +26°C° 0 mm 1 mps 752 mmHg 97%
    01:00 +25°C° 0.1 mm 1 mps 752 mmHg 97%
    02:00 +25°C° 0.1 mm 1 mps 751 mmHg 97%
    03:00 +25°C° 0.1 mm 1 mps 751 mmHg 98%
    04:00 +25°C° 0.1 mm 1 mps 751 mmHg 97%
    05:00 +25°C° 0.1 mm 1 mps 751 mmHg 97%
    06:00 +25°C° 0.1 mm 1 mps 751 mmHg 96%
    07:00 +27°C° 0.2 mm 1 mps 752 mmHg 88%
    08:00 +29°C° 0.2 mm 2 mps 752 mmHg 80%
    09:00 +30°C° 0.2 mm 2 mps 752 mmHg 72%
    10:00 +31°C° 0.5 mm 3 mps 752 mmHg 70%
    11:00 +33°C° 0.5 mm 3 mps 752 mmHg 67%
    12:00 +33°C° 0.5 mm 3 mps 751 mmHg 65%
    13:00 +33°C° 0.2 mm 3 mps 751 mmHg 62%
    14:00 +34°C° 0.2 mm 3 mps 751 mmHg 60%
    15:00 +34°C° 0.2 mm 3 mps 750 mmHg 57%
    16:00 +33°C° 0 mm 3 mps 750 mmHg 63%
    17:00 +31°C° 0 mm 2 mps 750 mmHg 68%
    18:00 +29°C° 0 mm 2 mps 750 mmHg 73%
    19:00 +28°C° 0 mm 2 mps 751 mmHg 80%
    20:00 +27°C° 0 mm 1 mps 751 mmHg 86%
    21:00 +26°C° 0 mm 1 mps 752 mmHg 93%
    22:00 +23°C° 0 mm 0 mps 752 mmHg 95%
    23:00 +23°C° 0 mm 0 mps 752 mmHg 96%

    Tomorrow, 25 May, Saturday

    Time Temperature Precipitation Wind Pressure Humidity
    00:00 +23°C° 0 mm 0 mps 752 mmHg 98%
    01:00 +23°C° 0.1 mm 0 mps 752 mmHg 98%
    02:00 +23°C° 0.1 mm 0 mps 751 mmHg 98%
    03:00 +23°C° 0.1 mm 0 mps 751 mmHg 98%
    04:00 +23°C° 0.1 mm 0 mps 751 mmHg 98%
    05:00 +23°C° 0.1 mm 0 mps 751 mmHg 97%
    06:00 +23°C° 0.1 mm 0 mps 751 mmHg 97%
    07:00 +27°C° 0.2 mm 1 mps 752 mmHg 88%
    08:00 +29°C° 0.2 mm 1 mps 752 mmHg 79%
    09:00 +31°C° 0.2 mm 2 mps 752 mmHg 70%
    10:00 +32°C° 0.4 mm 2 mps 752 mmHg 65%
    11:00 +34°C° 0.4 mm 2 mps 752 mmHg 60%
    12:00 +35°C° 0.4 mm 3 mps 751 mmHg 55%
    13:00 +35°C° 0.2 mm 3 mps 751 mmHg 53%
    14:00 +35°C° 0.2 mm 3 mps 750 mmHg 52%
    15:00 +35°C° 0.2 mm 3 mps 750 mmHg 51%
    16:00 +34°C° 0 mm 3 mps 750 mmHg 57%
    17:00 +31°C° 0 mm 2 mps 750 mmHg 64%
    18:00 +30°C° 0 mm 2 mps 750 mmHg 71%
    19:00 +28°C° 0 mm 2 mps 750 mmHg 78%
    20:00 +27°C° 0 mm 1 mps 751 mmHg 86%
    21:00 +26°C° 0 mm 1 mps 752 mmHg 94%
    22:00 +23°C° 0.1 mm 0 mps 752 mmHg 95%
    23:00 +23°C° 0.1 mm 0 mps 752 mmHg 97%

    Day after tomorrow, 26 May, Sunday

    Time Temperature Precipitation Wind Pressure Humidity
    00:00 +23°C° 0.1 mm 0 mps 752 mmHg 98%
    01:00 +23°C° 0 mm 0 mps 751 mmHg 98%
    02:00 +23°C° 0 mm 0 mps 751 mmHg 98%
    03:00 +22°C° 0 mm 0 mps 751 mmHg 99%
    04:00 +23°C° 0 mm 0 mps 751 mmHg 98%
    05:00 +23°C° 0 mm 0 mps 751 mmHg 97%
    06:00 +23°C° 0 mm 0 mps 751 mmHg 96%
    07:00 +25°C° 0 mm 0 mps 752 mmHg 85%
    08:00 +29°C° 0 mm 1 mps 752 mmHg 74%
    09:00 +31°C° 0 mm 1 mps 752 mmHg 62%
    10:00 +34°C° 0.2 mm 2 mps 752 mmHg 59%
    11:00 +35°C° 0.2 mm 2 mps 752 mmHg 55%
    12:00 +36°C° 0.2 mm 2 mps 752 mmHg 51%
    13:00 +35°C° 0.3 mm 2 mps 751 mmHg 52%
    14:00 +35°C° 0.3 mm 3 mps 750 mmHg 53%
    15:00 +35°C° 0.3 mm 3 mps 750 mmHg 54%
    16:00 +32°C° 0.2 mm 2 mps 750 mmHg 60%
    17:00 +31°C° 0.2 mm 2 mps 750 mmHg 66%
    18:00 +30°C° 0.2 mm 2 mps 750 mmHg 72%
    19:00 +28°C° 0 mm 1 mps 751 mmHg 79%
    20:00 +27°C° 0 mm 1 mps 751 mmHg 86%
    21:00 +26°C° 0 mm 1 mps 752 mmHg 93%
    22:00 +23°C° 0 mm 0 mps 752 mmHg 95%
    23:00 +23°C° 0 mm 0 mps 752 mmHg 96%

    27 May, Monday

    Time Temperature Precipitation Wind Pressure Humidity
    00:00 +23°C° 0 mm 0 mps 752 mmHg 98%
    01:00 +23°C° 0 mm 0 mps 751 mmHg 98%
    02:00 +23°C° 0 mm 0 mps 751 mmHg 98%
    03:00 +23°C° 0 mm 0 mps 750 mmHg 98%
    04:00 +23°C° 0 mm 0 mps 750 mmHg 98%
    05:00 +23°C° 0 mm 0 mps 750 mmHg 97%
    06:00 +23°C° 0 mm 0 mps 750 mmHg 96%
    07:00 +25°C° 0 mm 0 mps 751 mmHg 84%
    08:00 +30°C° 0 mm 1 mps 751 mmHg 73%
    09:00 +32°C° 0 mm 1 mps 752 mmHg 61%
    10:00 +31°C° 1 mm 1 mps 751 mmHg 68%
    11:00 +31°C° 1 mm 2 mps 751 mmHg 75%
    12:00 +30°C° 1 mm 2 mps 750 mmHg 82%
    13:00 +31°C° 0.7 mm 2 mps 750 mmHg 76%
    14:00 +31°C° 0.7 mm 2 mps 749 mmHg 71%
    15:00 +32°C° 0.7 mm 2 mps 749 mmHg 65%
    16:00 +31°C° 0.1 mm 2 mps 749 mmHg 68%
    17:00 +30°C° 0.1 mm 2 mps 749 mmHg 71%
    18:00 +29°C° 0.1 mm 2 mps 749 mmHg 74%
    19:00 +28°C° 0 mm 1 mps 749 mmHg 80%
    20:00 +27°C° 0 mm 1 mps 750 mmHg 87%
    21:00 +26°C° 0 mm 1 mps 751 mmHg 94%
    22:00 +25°C° 0 mm 1 mps 750 mmHg 95%
    23:00 +23°C° 0 mm 0 mps 750 mmHg 96%

    28 May, Tuesday

    Time Temperature Precipitation Wind Pressure Humidity
    00:00 +23°C° 0 mm 0 mps 750 mmHg 98%
    01:00 +23°C° 0 mm 0 mps 750 mmHg 98%
    02:00 +23°C° 0 mm 0 mps 749 mmHg 98%
    03:00 +22°C° 0 mm 0 mps 749 mmHg 98%
    04:00 +23°C° 0 mm 0 mps 749 mmHg 98%
    05:00 +23°C° 0 mm 0 mps 749 mmHg 97%
    06:00 +23°C° 0 mm 0 mps 749 mmHg 96%
    07:00 +25°C° 0 mm 0 mps 749 mmHg 84%
    08:00 +30°C° 0 mm 1 mps 750 mmHg 73%
    09:00 +32°C° 0 mm 1 mps 750 mmHg 61%
    10:00 +34°C° 0.1 mm 2 mps 750 mmHg 56%
    11:00 +35°C° 0.1 mm 2 mps 749 mmHg 51%
    12:00 +37°C° 0.1 mm 2 mps 748 mmHg 46%
    13:00 +36°C° 0.1 mm 2 mps 748 mmHg 47%
    14:00 +36°C° 0.1 mm 3 mps 747 mmHg 48%
    15:00 +36°C° 0.1 mm 3 mps 747 mmHg 48%
    16:00 +34°C° 0 mm 2 mps 747 mmHg 54%
    17:00 +32°C° 0 mm 2 mps 747 mmHg 60%
    18:00 +31°C° 0 mm 2 mps 747 mmHg 65%
    19:00 +29°C° 0 mm 2 mps 747 mmHg 74%
    20:00 +28°C° 0 mm 1 mps 748 mmHg 83%
    21:00 +26°C° 0 mm 1 mps 748 mmHg 92%
    22:00 +24°C° 0 mm 0 mps 748 mmHg 93%
    23:00 +24°C° 0 mm 0 mps 748 mmHg 95%

    29 May, Wednesday

    Time Temperature Precipitation Wind Pressure Humidity
    00:00 +24°C° 0 mm 0 mps 748 mmHg 97%
    01:00 +24°C° 0 mm 0 mps 748 mmHg 97%
    02:00 +24°C° 0 mm 0 mps 747 mmHg 98%
    03:00 +23°C° 0 mm 0 mps 747 mmHg 98%
    04:00 +24°C° 0 mm 0 mps 747 mmHg 97%
    05:00 +24°C° 0 mm 0 mps 747 mmHg 96%
    06:00 +24°C° 0 mm 0 mps 748 mmHg 95%
    07:00 +27°C° 0 mm 0 mps 748 mmHg 82%
    08:00 +31°C° 0 mm 1 mps 748 mmHg 69%
    09:00 +34°C° 0 mm 1 mps 748 mmHg 56%
    10:00 +33°C° 1.6 mm 1 mps 748 mmHg 65%
    11:00 +32°C° 1.6 mm 1 mps 747 mmHg 73%
    12:00 +32°C° 1.6 mm 2 mps 747 mmHg 82%
    13:00 +31°C° 2.8 mm 1 mps 746 mmHg 83%
    14:00 +31°C° 2.8 mm 1 mps 746 mmHg 83%
    15:00 +31°C° 2.8 mm 1 mps 745 mmHg 83%
    16:00 +30°C° 0.4 mm 1 mps 745 mmHg 83%
    17:00 +30°C° 0.4 mm 1 mps 746 mmHg 83%
    18:00 +30°C° 0.4 mm 1 mps 746 mmHg 83%
    19:00 +29°C° 0.1 mm 1 mps 747 mmHg 86%
    20:00 +28°C° 0.1 mm 1 mps 747 mmHg 90%
    21:00 +27°C° 0.1 mm 1 mps 747 mmHg 94%
    22:00 +27°C° 0.1 mm 1 mps 747 mmHg 95%
    23:00 +27°C° 0.1 mm 1 mps 747 mmHg 96%
    Show more